Regional Weather Roundup
Issued by NWS

Home | Current Version | Previous Version | Text Only | Print | Product List | Glossary On
Versions: 1 2 3 4 5 6 7 8 9 10 11 12 13 14 15 16 17 18 19 20 21 22 23 24 25
000
ASUS45 KCYS 231910
RWRWY

WYOMING REGIONAL WEATHER ROUNDUP
NATIONAL WEATHER SERVICE CHEYENNE WY
100 PM MDT THU OCT 23 2014

NOTE:  "FAIR" INDICATES FEW OR NO CLOUDS BELOW 12,000 FEET
WITH NO SIGNIFICANT WEATHER AND/OR OBSTRUCTIONS TO VISIBILITY.

WYZ001-232000-
YELLOWSTONE NATIONAL PARK

CITY           SKY/WX    TMP DP  RH WIND       PRES   REMARKS
LK YELLOWSTONE   N/A     50  24  36 SW14G23   30.19
W YELLOWSTONE  NOT AVBL

$$
WYZ002>013-054>058-071-098>099-232000-
NORTHERN WYOMING

CITY           SKY/WX    TMP DP  RH WIND       PRES   REMARKS
JACKSON        CLOUDY    55  27  33 CALM      30.14F
CODY           MOSUNNY   68  30  24 W14G25    29.97
GREYBULL       PTSUNNY   58  23  26 CALM      29.96F
WORLAND        MOSUNNY   63  30  28 CALM      29.96F
SHERIDAN       MOSUNNY   72  28  19 N7        29.91F
BUFFALO        MOSUNNY   67  17  14 E8        29.96F
GILLETTE       PTSUNNY   67  25  20 NW7       29.95S
HULETT         FAIR      63  27  25 SW13      29.95
NEWCASTLE      FAIR      59  21  23 SE8       29.98

$$
WYZ014>020-022>026-101>103-232000-
CENTRAL WYOMING

CITY           SKY/WX    TMP DP  RH WIND       PRES   REMARKS
BIG PINEY      PTSUNNY   51  24  34 SE3       30.21F
PINEDALE       MOCLDY    52  23  32 CALM      30.21
DUBOIS         FAIR      55  21  26 W30G43    30.09F HAZE
LANDER         MOSUNNY   60  24  25 W5        30.04F
RIVERTON       MOSUNNY   60  23  24 E9        30.05F
CASPER         SUNNY     68  23  18 W23G36    30.05F
DOUGLAS        MOSUNNY   71  26  18 W22G33    30.02F

$$
WYZ021-027>030-104>119-232000-
SOUTHERN WYOMING

CITY           SKY/WX    TMP DP  RH WIND       PRES   REMARKS
EVANSTON       MOSUNNY   64  25  22 SW21G30   30.21F
KEMMERER       PTCLDY    59  25  27 W13       30.22F
FORT BRIDGER   FAIR      63  28  25 W7        30.23F
ROCK SPRINGS   SUNNY     60  29  30 SW8       30.19F
DIXON          FAIR      63  33  31 SW20      30.25F
RAWLINS        CLOUDY    59  29  31 SW20      30.19F
SARATOGA       FAIR      59  28  31 SW16G26   30.22F
LARAMIE        PTSUNNY   61  27  27 W18       30.20F
CHEYENNE       CLOUDY    65  28  24 W28       30.15F
TORRINGTON     CLOUDY    71  31  22 W17       30.03F
PINE BLUFFS    FAIR      68  34  28 SW16G22   30.12F

$$



USA.gov is the U.S. government's official web portal to all federal, state and local government web resources and services.